"Period start","avg(HW err(1)/warn(2) (#))","avg(Visibility (m))","avg(Weather code (#))","avg(Precip intensity (mm/h))","min(HW err(1)/warn(2) (#))","max(HW err(1)/warn(2) (#))","std(HW err(1)/warn(2) (#))","med(HW err(1)/warn(2) (#))","min(Visibility (m))","max(Visibility (m))","std(Visibility (m))","med(Visibility (m))","min(Weather code (#))","max(Weather code (#))","std(Weather code (#))","med(Weather code (#))","min(Precip intensity (mm/h))","max(Precip intensity (mm/h))","std(Precip intensity (mm/h))","med(Precip intensity (mm/h))"
2013-07-17 00:00:00,2,49180,0,0.00,2,2,0,2,45116,50000,1505,50000,0,0,0,0,0.00,0.00,0.00,0.00
2013-07-17 00:10:00,2,46875,0,0.00,2,2,0,2,40216,50000,3744,48808,0,0,0,0,0.00,0.00,0.00,0.00
2013-07-17 00:20:00,2,47581,0,0.00,2,2,0,2,39236,50000,3376,49212,0,0,0,0,0.00,0.00,0.00,0.00
2013-07-17 00:30:00,2,44684,0,0.00,2,2,0,2,30775,50000,6300,47288,0,0,0,0,0.00,0.00,0.00,0.00
2013-07-17 00:40:00,2,43479,0,0.00,2,2,0,2,34816,50000,5304,45790,0,0,0,0,0.00,0.00,0.00,0.00
2013-07-17 00:50:00,2,44399,0,0.00,2,2,0,2,31592,50000,6430,47620,0,0,0,0,0.00,0.00,0.00,0.00
2013-07-17 01:00:00,2,47391,0,0.00,2,2,0,2,34693,50000,4610,50000,0,0,0,0,0.00,0.00,0.00,0.00
2013-07-17 01:10:00,2,42807,0,0.00,2,2,0,2,22189,50000,8840,44529,0,0,0,0,0.00,0.00,0.00,0.00
2013-07-17 01:20:00,2,48666,0,0.00,2,2,0,2,41312,50000,2816,50000,0,0,0,0,0.00,0.00,0.00,0.00
2013-07-17 01:30:00,2,43897,0,0.00,2,2,0,2,34545,50000,5631,46927,0,0,0,0,0.00,0.00,0.00,0.00
2013-07-17 01:40:00,2,47094,0,0.00,2,2,0,2,38286,50000,3920,49299,0,0,0,0,0.00,0.00,0.00,0.00
2013-07-17 01:50:00,2,46426,0,0.00,2,2,0,2,33458,50000,5237,49495,0,0,0,0,0.00,0.00,0.00,0.00
2013-07-17 02:00:00,2,46304,0,0.00,2,2,0,2,39024,50000,3306,47314,0,0,0,0,0.00,0.00,0.00,0.00
2013-07-17 02:10:00,2,45704,0,0.00,2,2,0,2,33989,50000,5223,48478,0,0,0,0,0.00,0.00,0.00,0.00
2013-07-17 02:20:00,2,42564,0,0.00,2,2,0,2,21380,50000,8168,44729,0,0,0,0,0.00,0.00,0.00,0.00
2013-07-17 02:30:00,2,46391,0,0.00,2,2,0,2,38435,50000,4112,48606,0,0,0,0,0.00,0.00,0.00,0.00
2013-07-17 02:40:00,2,48269,0,0.00,2,2,0,2,41989,50000,2933,50000,0,0,0,0,0.00,0.00,0.00,0.00
2013-07-17 02:50:00,2,46318,0,0.00,2,2,0,2,41652,50000,3355,46290,0,0,0,0,0.00,0.00,0.00,0.00
2013-07-17 03:00:00,2,45413,0,0.00,2,2,0,2,41748,50000,2713,44829,0,0,0,0,0.00,0.00,0.00,0.00
2013-07-17 03:10:00,2,47691,0,0.00,2,2,0,2,43943,50000,2232,48158,0,0,0,0,0.00,0.00,0.00,0.00
2013-07-17 03:20:00,2,44278,0,0.00,2,2,0,2,31390,50000,5766,44424,0,0,0,0,0.00,0.00,0.00,0.00
2013-07-17 03:30:00,2,43364,0,0.00,2,2,0,2,30354,50000,6369,45189,0,0,0,0,0.00,0.00,0.00,0.00
2013-07-17 03:40:00,2,44459,0,0.00,2,2,0,2,27853,50000,6708,46930,0,0,0,0,0.00,0.00,0.00,0.00
2013-07-17 03:50:00,2,41784,0,0.00,2,2,0,2,29511,50000,7914,42394,0,0,0,0,0.00,0.00,0.00,0.00
2013-07-17 04:00:00,2,47705,0,0.00,2,2,0,2,36044,50000,4588,50000,0,0,0,0,0.00,0.00,0.00,0.00
2013-07-17 04:10:00,2,46177,0,0.00,2,2,0,2,37439,50000,4999,49332,0,0,0,0,0.00,0.00,0.00,0.00
2013-07-17 04:20:00,2,39686,0,0.00,2,2,0,2,22472,50000,7934,40253,0,0,0,0,0.00,0.00,0.00,0.00
2013-07-17 04:30:00,2,48370,0,0.00,2,2,0,2,42979,50000,2077,49017,0,0,0,0,0.00,0.00,0.00,0.00
2013-07-17 04:40:00,2,41520,0,0.00,2,2,0,2,35075,46858,3144,41416,0,0,0,0,0.00,0.00,0.00,0.00
2013-07-17 04:50:00,2,48005,0,0.00,2,2,0,2,39869,50000,3903,50000,0,0,0,0,0.00,0.00,0.00,0.00
2013-07-17 05:00:00,2,48298,0,0.00,2,2,0,2,41699,50000,2551,49602,0,0,0,0,0.00,0.00,0.00,0.00
2013-07-17 05:10:00,2,44020,0,0.00,2,2,0,2,35064,50000,4965,42998,0,0,0,0,0.00,0.00,0.00,0.00
2013-07-17 05:20:00,2,48134,0,0.00,2,2,0,2,40673,50000,2777,49140,0,0,0,0,0.00,0.00,0.00,0.00
2013-07-17 05:30:00,2,47651,0,0.00,2,2,0,2,39953,50000,3743,50000,0,0,0,0,0.00,0.00,0.00,0.00
2013-07-17 05:40:00,2,49029,0,0.00,2,2,0,2,43901,50000,1780,49810,0,0,0,0,0.00,0.00,0.00,0.00
2013-07-17 05:50:00,2,43528,0,0.00,2,2,0,2,39495,48803,3075,44190,0,0,0,0,0.00,0.00,0.00,0.00
2013-07-17 06:00:00,2,36424,0,0.00,2,2,0,2,6072,50000,15173,41388,0,0,0,0,0.00,0.00,0.00,0.00
2013-07-17 06:10:00,2,3016,7,0.00,2,2,0,2,769,9771,2678,1844,0,10,5,10,0.00,0.00,0.00,0.00
2013-07-17 06:20:00,2,589,29,0.00,2,2,0,2,304,1354,320,486,10,34,9,34,0.00,0.00,0.00,0.00
2013-07-17 06:30:00,2,870,34,0.00,2,2,0,2,255,1534,429,844,34,34,0,34,0.00,0.00,0.00,0.00
2013-07-17 06:40:00,2,894,34,0.00,2,2,0,2,576,1486,309,740,34,34,0,34,0.00,0.00,0.00,0.00
2013-07-17 06:50:00,2,20806,26,0.00,2,2,0,2,1695,43382,12606,20863,20,34,7,20,0.00,0.00,0.00,0.00
2013-07-17 07:00:00,2,25432,20,0.00,2,2,0,2,1459,50000,22079,21352,20,20,0,20,0.00,0.00,0.00,0.00
2013-07-17 07:10:00,2,1911,20,0.00,2,2,0,2,948,3955,906,1594,20,20,0,20,0.00,0.00,0.00,0.00
2013-07-17 07:20:00,2,1731,20,0.00,2,2,0,2,727,2533,599,1743,20,20,0,20,0.00,0.00,0.00,0.00
2013-07-17 07:30:00,2,1012,23,0.00,2,2,0,2,478,1919,455,908,20,33,5,20,0.00,0.00,0.00,0.00
2013-07-17 07:40:00,2,1678,30,0.00,2,2,0,2,957,3107,638,1698,20,33,5,33,0.00,0.00,0.00,0.00
2013-07-17 07:50:00,2,1700,20,0.00,2,2,0,2,630,3641,998,1425,20,20,0,20,0.00,0.00,0.00,0.00
2013-07-17 08:00:00,2,4346,20,0.00,2,2,0,2,1264,7148,1824,4124,20,20,0,20,0.00,0.00,0.00,0.00
2013-07-17 08:10:00,2,4630,20,0.00,2,2,0,2,2351,7201,1464,4234,20,20,0,20,0.00,0.00,0.00,0.00
2013-07-17 08:20:00,2,3665,20,0.00,2,2,0,2,1933,5894,1046,3452,20,20,0,20,0.00,0.00,0.00,0.00
2013-07-17 08:30:00,2,4642,20,0.00,2,2,0,2,1492,10684,2958,3382,20,20,0,20,0.00,0.00,0.00,0.00
2013-07-17 08:40:00,2,24055,18,0.00,2,2,0,2,7081,45434,13439,21458,0,20,6,20,0.00,0.00,0.00,0.00
2013-07-17 08:50:00,2,26903,0,0.00,2,2,0,2,12251,48876,11927,29028,0,0,0,0,0.00,0.00,0.00,0.00
2013-07-17 09:00:00,2,42241,0,0.00,2,2,0,2,30330,50000,6719,43880,0,0,0,0,0.00,0.00,0.00,0.00
2013-07-17 09:10:00,2,49956,0,0.00,2,2,0,2,49560,50000,132,50000,0,0,0,0,0.00,0.00,0.00,0.00
2013-07-17 09:20:00,2,38556,0,0.00,2,2,0,2,13976,50000,13443,44557,0,0,0,0,0.00,0.00,0.00,0.00
2013-07-17 09:30:00,2,15396,0,0.00,2,2,0,2,3965,35767,9463,11727,0,0,0,0,0.00,0.00,0.00,0.00
2013-07-17 09:40:00,2,3338,9,0.00,2,2,0,2,1901,5784,1084,3197,0,10,3,10,0.00,0.00,0.00,0.00
2013-07-17 09:50:00,2,5178,10,0.00,2,2,0,2,3103,7932,1833,4425,10,10,0,10,0.00,0.00,0.00,0.00
2013-07-17 10:00:00,2,5430,10,0.00,2,2,0,2,2564,8156,2136,5882,10,10,0,10,0.00,0.00,0.00,0.00
2013-07-17 10:10:00,2,3833,10,0.00,2,2,0,2,1097,11629,3188,2634,10,10,0,10,0.00,0.00,0.00,0.00
2013-07-17 10:20:00,2,4559,10,0.00,2,2,0,2,1702,8015,2249,4261,10,10,0,10,0.00,0.00,0.00,0.00
2013-07-17 10:30:00,2,3707,10,0.00,2,2,0,2,1306,10108,2742,2585,10,10,0,10,0.00,0.00,0.00,0.00
2013-07-17 10:40:00,2,3709,10,0.00,2,2,0,2,1167,7191,2083,3288,10,10,0,10,0.00,0.00,0.00,0.00
2013-07-17 10:50:00,2,2078,10,0.00,2,2,0,2,970,3649,865,1684,10,10,0,10,0.00,0.00,0.00,0.00
2013-07-17 11:00:00,2,1543,10,0.00,2,2,0,2,968,2344,463,1416,10,10,0,10,0.00,0.00,0.00,0.00
2013-07-17 11:10:00,2,1992,10,0.00,2,2,0,2,1006,4207,951,1596,10,10,0,10,0.00,0.00,0.00,0.00
2013-07-17 11:20:00,2,1188,12,0.00,2,2,0,2,519,2222,606,942,10,30,6,10,0.00,0.00,0.00,0.00
2013-07-17 11:30:00,2,532,34,0.00,2,2,0,2,427,603,44,538,34,34,0,34,0.00,0.00,0.00,0.00
2013-07-17 11:40:00,2,524,34,0.00,2,2,0,2,449,574,35,526,34,34,0,34,0.00,0.00,0.00,0.00
2013-07-17 11:50:00,2,457,34,0.00,2,2,0,2,393,560,46,444,34,34,0,34,0.00,0.00,0.00,0.00
2013-07-17 12:00:00,2,435,34,0.00,2,2,0,2,381,468,29,435,34,34,0,34,0.00,0.00,0.00,0.00
2013-07-17 12:10:00,2,392,34,0.00,2,2,0,2,318,482,61,362,34,34,0,34,0.00,0.00,0.00,0.00
2013-07-17 12:20:00,2,311,34,0.00,2,2,0,2,271,355,24,314,34,34,0,34,0.00,0.00,0.00,0.00
2013-07-17 12:30:00,2,298,34,0.00,2,2,0,2,253,321,20,302,34,34,0,34,0.00,0.00,0.00,0.00
2013-07-17 12:40:00,2,449,34,0.00,2,2,0,2,327,567,82,458,34,34,0,34,0.00,0.00,0.00,0.00
2013-07-17 12:50:00,2,364,33,0.00,2,2,0,2,264,486,68,358,30,34,1,33,0.00,0.00,0.00,0.00
2013-07-17 13:00:00,2,24543,32,0.00,2,2,0,2,795,50000,20338,22602,30,33,1,33,0.00,0.00,0.00,0.00
2013-07-17 13:10:00,2,50000,24,0.00,2,2,0,2,50000,50000,0,50000,20,30,5,20,0.00,0.00,0.00,0.00
2013-07-17 13:20:00,2,49950,20,0.00,2,2,0,2,49450,50000,158,50000,20,20,0,20,0.00,0.00,0.00,0.00
2013-07-17 13:30:00,2,49979,20,0.00,2,2,0,2,49807,50000,61,50000,20,20,0,20,0.00,0.00,0.00,0.00
2013-07-17 13:40:00,2,49849,20,0.00,2,2,0,2,48337,50000,478,50000,20,20,0,20,0.00,0.00,0.00,0.00
2013-07-17 13:50:00,2,50000,20,0.00,2,2,0,2,50000,50000,0,50000,20,20,0,20,0.00,0.00,0.00,0.00
2013-07-17 14:00:00,2,50000,20,0.00,2,2,0,2,50000,50000,0,50000,20,20,0,20,0.00,0.00,0.00,0.00
2013-07-17 14:10:00,2,49879,4,0.00,2,2,0,2,48787,50000,364,50000,0,20,8,0,0.00,0.00,0.00,0.00
2013-07-17 14:20:00,2,50000,0,0.00,2,2,0,2,50000,50000,0,50000,0,0,0,0,0.00,0.00,0.00,0.00
2013-07-17 14:30:00,2,49979,0,0.00,2,2,0,2,49794,50000,62,50000,0,0,0,0,0.00,0.00,0.00,0.00
2013-07-17 14:40:00,2,50000,0,0.00,2,2,0,2,50000,50000,0,50000,0,0,0,0,0.00,0.00,0.00,0.00
2013-07-17 14:50:00,2,50000,0,0.00,2,2,0,2,50000,50000,0,50000,0,0,0,0,0.00,0.00,0.00,0.00
2013-07-17 15:00:00,2,50000,0,0.00,2,2,0,2,50000,50000,0,50000,0,0,0,0,0.00,0.00,0.00,0.00
2013-07-17 15:10:00,2,50000,0,0.00,2,2,0,2,50000,50000,0,50000,0,0,0,0,0.00,0.00,0.00,0.00
2013-07-17 15:20:00,2,50000,0,0.00,2,2,0,2,50000,50000,0,50000,0,0,0,0,0.00,0.00,0.00,0.00
2013-07-17 15:30:00,2,50000,0,0.00,2,2,0,2,50000,50000,0,50000,0,0,0,0,0.00,0.00,0.00,0.00
2013-07-17 15:40:00,2,50000,0,0.00,0,2,1,2,50000,50000,0,50000,0,0,0,0,0.00,0.00,0.00,0.00
2013-07-17 15:50:00,0,50000,0,0.00,0,2,1,0,50000,50000,0,50000,0,0,0,0,0.00,0.00,0.00,0.00
2013-07-17 16:00:00,1,50000,0,0.00,0,2,1,1,50000,50000,0,50000,0,0,0,0,0.00,0.00,0.00,0.00
2013-07-17 16:10:00,2,50000,0,0.00,2,2,0,2,50000,50000,0,50000,0,0,0,0,0.00,0.00,0.00,0.00
2013-07-17 16:20:00,2,50000,0,0.00,2,2,0,2,50000,50000,0,50000,0,0,0,0,0.00,0.00,0.00,0.00
2013-07-17 16:30:00,2,50000,0,0.00,2,2,0,2,50000,50000,0,50000,0,0,0,0,0.00,0.00,0.00,0.00
2013-07-17 16:40:00,2,50000,0,0.00,2,2,0,2,50000,50000,0,50000,0,0,0,0,0.00,0.00,0.00,0.00
2013-07-17 16:50:00,2,50000,0,0.00,2,2,0,2,50000,50000,0,50000,0,0,0,0,0.00,0.00,0.00,0.00
2013-07-17 17:00:00,2,50000,0,0.00,2,2,0,2,50000,50000,0,50000,0,0,0,0,0.00,0.00,0.00,0.00
2013-07-17 17:10:00,2,50000,0,0.00,2,2,0,2,50000,50000,0,50000,0,0,0,0,0.00,0.00,0.00,0.00
2013-07-17 17:20:00,2,50000,0,0.00,2,2,0,2,50000,50000,0,50000,0,0,0,0,0.00,0.00,0.00,0.00
2013-07-17 17:30:00,2,49936,0,0.00,2,2,0,2,49355,50000,194,50000,0,0,0,0,0.00,0.00,0.00,0.00
2013-07-17 17:40:00,2,50000,0,0.00,2,2,0,2,50000,50000,0,50000,0,0,0,0,0.00,0.00,0.00,0.00
2013-07-17 17:50:00,2,49998,0,0.00,2,2,0,2,49984,50000,5,50000,0,0,0,0,0.00,0.00,0.00,0.00
2013-07-17 18:00:00,2,50000,0,0.00,2,2,0,2,50000,50000,0,50000,0,0,0,0,0.00,0.00,0.00,0.00
2013-07-17 18:10:00,2,49738,0,0.00,2,2,0,2,48135,50000,576,50000,0,0,0,0,0.00,0.00,0.00,0.00
2013-07-17 18:20:00,2,50000,0,0.00,2,2,0,2,50000,50000,0,50000,0,0,0,0,0.00,0.00,0.00,0.00
2013-07-17 18:30:00,2,49017,0,0.00,2,2,0,2,44004,50000,2024,50000,0,0,0,0,0.00,0.00,0.00,0.00
2013-07-17 18:40:00,2,49677,0,0.00,2,2,0,2,47729,50000,705,50000,0,0,0,0,0.00,0.00,0.00,0.00
2013-07-17 18:50:00,2,48062,0,0.00,2,2,0,2,37982,50000,3813,50000,0,0,0,0,0.00,0.00,0.00,0.00
2013-07-17 19:00:00,2,48761,0,0.00,2,2,0,2,45634,50000,1867,50000,0,0,0,0,0.00,0.00,0.00,0.00
2013-07-17 19:10:00,2,49688,0,0.00,2,2,0,2,48188,50000,573,50000,0,0,0,0,0.00,0.00,0.00,0.00
2013-07-17 19:20:00,2,49301,0,0.00,2,2,0,2,45606,50000,1353,50000,0,0,0,0,0.00,0.00,0.00,0.00
2013-07-17 19:30:00,2,49734,0,0.00,2,2,0,2,47518,50000,741,50000,0,0,0,0,0.00,0.00,0.00,0.00
2013-07-17 19:40:00,2,48740,0,0.00,2,2,0,2,44784,50000,1796,50000,0,0,0,0,0.00,0.00,0.00,0.00
2013-07-17 19:50:00,2,46654,0,0.00,2,2,0,2,38814,50000,3447,47404,0,0,0,0,0.00,0.00,0.00,0.00
2013-07-17 20:00:00,2,44470,0,0.00,2,2,0,2,37841,50000,4678,45560,0,0,0,0,0.00,0.00,0.00,0.00
2013-07-17 20:10:00,2,49728,0,0.00,2,2,0,2,48709,50000,451,50000,0,0,0,0,0.00,0.00,0.00,0.00
2013-07-17 20:20:00,2,48720,0,0.00,2,2,0,2,45891,50000,1654,50000,0,0,0,0,0.00,0.00,0.00,0.00
2013-07-17 20:30:00,2,46932,0,0.00,2,2,0,2,40989,50000,3140,47517,0,0,0,0,0.00,0.00,0.00,0.00
2013-07-17 20:40:00,2,47677,0,0.00,2,2,0,2,40953,50000,3099,49614,0,0,0,0,0.00,0.00,0.00,0.00
2013-07-17 20:50:00,2,48984,0,0.00,2,2,0,2,42141,50000,2342,50000,0,0,0,0,0.00,0.00,0.00,0.00
2013-07-17 21:00:00,2,49768,0,0.00,2,2,0,2,47678,50000,697,50000,0,0,0,0,0.00,0.00,0.00,0.00
2013-07-17 21:10:00,2,46499,0,0.00,2,2,0,2,36842,50000,4597,49538,0,0,0,0,0.00,0.00,0.00,0.00
2013-07-17 21:20:00,2,46924,0,0.00,2,2,0,2,38584,50000,4746,50000,0,0,0,0,0.00,0.00,0.00,0.00
2013-07-17 21:30:00,2,46482,0,0.00,2,2,0,2,39828,50000,3718,48182,0,0,0,0,0.00,0.00,0.00,0.00
2013-07-17 21:40:00,2,41166,0,0.00,2,2,0,2,30291,50000,5728,41938,0,0,0,0,0.00,0.00,0.00,0.00
2013-07-17 21:50:00,2,48608,0,0.00,2,2,0,2,43438,50000,2399,50000,0,0,0,0,0.00,0.00,0.00,0.00
2013-07-17 22:00:00,2,49012,0,0.00,2,2,0,2,45427,50000,1485,50000,0,0,0,0,0.00,0.00,0.00,0.00
2013-07-17 22:10:00,2,45905,0,0.00,2,2,0,2,30484,50000,6863,49486,0,0,0,0,0.00,0.00,0.00,0.00
2013-07-17 22:20:00,2,45244,0,0.00,2,2,0,2,37697,50000,4316,46669,0,0,0,0,0.00,0.00,0.00,0.00
2013-07-17 22:30:00,2,47372,0,0.00,2,2,0,2,42754,50000,2678,47998,0,0,0,0,0.00,0.00,0.00,0.00
2013-07-17 22:40:00,2,40914,0,0.00,2,2,0,2,27848,49341,6633,42540,0,0,0,0,0.00,0.00,0.00,0.00
2013-07-17 22:50:00,2,43394,0,0.00,2,2,0,2,29524,50000,7377,47074,0,0,0,0,0.00,0.00,0.00,0.00
2013-07-17 23:00:00,2,44958,0,0.00,2,2,0,2,37638,50000,3666,45038,0,0,0,0,0.00,0.00,0.00,0.00
2013-07-17 23:10:00,2,47559,0,0.00,2,2,0,2,41633,50000,2910,48970,0,0,0,0,0.00,0.00,0.00,0.00
2013-07-17 23:20:00,2,39266,0,0.00,2,2,0,2,23315,45402,6521,40414,0,0,0,0,0.00,0.00,0.00,0.00
2013-07-17 23:30:00,2,46498,0,0.00,2,2,0,2,36624,50000,4660,50000,0,0,0,0,0.00,0.00,0.00,0.00
2013-07-17 23:40:00,2,45125,0,0.00,2,2,0,2,35451,50000,4747,47654,0,0,0,0,0.00,0.00,0.00,0.00
2013-07-17 23:50:00,2,49468,0,0.00,2,2,0,2,46319,50000,1084,50000,0,0,0,0,0.00,0.00,0.00,0.00
